This is the latest recevied weather packets stored in our database for station/object KC8SWY-15. If no packets are shown the sender has not sent any weather packets the latest 10 day(s).
| Time | Temp. | Humidity | Pressure | Rain* | Wind** | Luminosity | Snow |
|---|---|---|---|---|---|---|---|
| 1788196545 | 26.67° C | 69% | 1014.8 hPa | 0 mm | - | - | - |
| 1788196245 | 26.11° C | 73% | 1014.9 hPa | 0 mm | - | - | - |
| 1788195945 | 25.56° C | 72% | 1015.2 hPa | 0 mm | - | - | - |
| 1788195645 | 25.56° C | 74% | 1015.3 hPa | 0 mm | - | - | - |
| 1788195345 | 25.56° C | 75% | 1015.3 hPa | 0 mm | - | - | - |
| 1788195045 | 25.56° C | 74% | 1015.3 hPa | 0 mm | - | - | - |
| 1788194745 | 25.56° C | 75% | 1015.3 hPa | 0 mm | - | - | - |
| 1788194445 | 25° C | 75% | 1015.4 hPa | 0 mm | - | - | - |
| 1788194145 | 25° C | 76% | 1015.4 hPa | 0 mm | - | - | - |
| 1788193846 | 25° C | 76% | 1015.5 hPa | 0 mm | - | - | - |
| 1788193546 | 25° C | 76% | 1015.4 hPa | 0 mm | - | - | - |
| 1788193246 | 25° C | 75% | 1015.6 hPa | 0 mm | - | - | - |
| 1788193130 | 25° C | 77% | 1015.4 hPa | 0 mm | - | - | - |
| 1788192946 | 25° C | 77% | 1015.4 hPa | 0 mm | - | - | - |
| 1788192646 | 24.44° C | 77% | 1015.6 hPa | 0 mm | - | - | - |
| 1788192346 | 24.44° C | 77% | 1015.6 hPa | 0 mm | - | - | - |
| 1788192046 | 24.44° C | 78% | 1015.6 hPa | 0 mm | - | - | - |
| 1788191746 | 24.44° C | 79% | 1015.6 hPa | 0 mm | - | - | - |
| 1788191446 | 24.44° C | 77% | 1015.9 hPa | 0 mm | - | - | - |
| 1788191279 | 24.44° C | 77% | 1015.8 hPa | 0 mm | - | - | - |
| 1788191146 | 24.44° C | 77% | 1015.8 hPa | 0 mm | - | - | - |
| 1788190846 | 24.44° C | 79% | 1015.8 hPa | 0 mm | - | - | - |
| 1788190546 | 23.89° C | 79% | 1015.8 hPa | 0 mm | - | - | - |
| 1788190300 | 24.44° C | 78% | 1016.1 hPa | 0 mm | - | - | - |
| 1788190246 | 24.44° C | 78% | 1016.1 hPa | 0 mm | - | - | - |
* Rain latest hour (hover to see other rain measurements)
** Current wind speed in m/s (hover to see current wind gust speed)